This is the latest recevied weather packets stored in our database for station/object SV7GBF-2. If no packets are shown the sender has not sent any weather packets the latest 10 day(s).
| Time | Temp. | Humidity | Pressure | Rain* | Wind** | Luminosity | Snow |
|---|---|---|---|---|---|---|---|
| 1787912643 | 30.56° C | 30% | 1017 hPa | - | - | - | - |
| 1787912044 | 30° C | 30% | 1017 hPa | - | - | - | - |
| 1787911443 | 30° C | 31% | 1017 hPa | - | - | - | - |
| 1787910844 | 30° C | 32% | 1017 hPa | - | - | - | - |
| 1787910245 | 29.44° C | 33% | 1017 hPa | - | - | - | - |
| 1787909043 | 29.44° C | 38% | 1017 hPa | - | - | - | - |
| 1787907843 | 28.89° C | 41% | 1017 hPa | - | - | - | - |
| 1787907244 | 28.89° C | 40% | 1017 hPa | - | - | - | - |
| 1787906643 | 28.89° C | 40% | 1017 hPa | - | - | - | - |
| 1787906043 | 28.33° C | 42% | 1016 hPa | - | - | - | - |
| 1787905443 | 28.89° C | 46% | 1017 hPa | - | - | - | - |
| 1787904844 | 28.33° C | 48% | 1017 hPa | - | - | - | - |
| 1787904244 | 28.33° C | 55% | 1017 hPa | - | - | - | - |
| 1787903644 | 27.78° C | 56% | 1016 hPa | - | - | - | - |
| 1787903043 | 27.78° C | 60% | 1016 hPa | - | - | - | - |
| 1787902444 | 27.22° C | 65% | 1017 hPa | - | - | - | - |
| 1787901844 | 27.78° C | 68% | 1017 hPa | - | - | - | - |
| 1787901243 | 27.22° C | 72% | 1017 hPa | - | - | - | - |
| 1787900643 | 26.67° C | 71% | 1017 hPa | - | - | - | - |
| 1787900043 | 26.67° C | 69% | 1016 hPa | - | - | - | - |
| 1787899444 | 27.22° C | 71% | 1016 hPa | - | - | - | - |
| 1787898843 | 27.22° C | 74% | 1016 hPa | - | - | - | - |
| 1787898243 | 27.22° C | 75% | 1016 hPa | - | - | - | - |
| 1787897643 | 26.67° C | 74% | 1016 hPa | - | - | - | - |
| 1787897044 | 26.67° C | 72% | 1016 hPa | - | - | - | - |
* Rain since midnight (hover to see other rain measurements)
** Current wind speed in m/s (hover to see current wind gust speed)